Location: Godiavel Galaoual
(15.2485°N, 12.6604°W)
Time: 08:06:59
(UTC+00:00)

BUGSAT 1 - Pass Details

Date: 01 August 2021
Orbit: 558 x 601 km, 98.1° (Epoch: 27 September)

Event Time Altitude Azimuth Distance (km) Brightness Sun altitude
Rises 04:50:37 0° 21° (NNE) 2,822 ? -23.6°
Reaches altitude 10° 04:52:50 10° 28° (NNE) 1,926 ? -23.1°
Maximum altitude 04:56:51 45° 101° (E) 818 ? -22.2°
Enters shadow 04:59:41 18° 167° (SSE) 1,480 ? -21.6°
